Miscellaneous Local Product
Issued by NWS Hastings, NE

Home | Current Version | Previous Version | Text Only | Print | Product List | Glossary Off
Versions: 1 2 3 4 5 6 7 8 9 10 11 12 13 14 15 16 17 18 19 20 21 22 23 24 25 26 27 28 29 30 31 32 33 34 35 36 37 38 39 40 41 42 43 44 45 46 47 48 49 50

000
AXUS43 KGID 280502
MISGRI

GID CWA HOURLY WEATHER ROUNDUP
NATIONAL WEATHER SERVICE HASTINGS NE
1200 AM CDT TUE MAR 28 2017

NOTE: "FAIR" INDICATES FEW OR NO CLOUDS BELOW 12,000 FEET WITH NO
SIGNIFICANT WEATHER AND/OR OBSTRUCTIONS TO VISIBILITY.

...SOUTH CENTRAL NEBRASKA...

CITY           SKY/WX    TMP DP  RH WIND       PRES   REMARKS
GRAND ISLAND   CLOUDY    38  38 100 S6        30.00R WCI  33
HASTINGS       CLOUDY    42  39  89 S5        30.00R
KEARNEY        CLEAR     39  34  81 SE7       29.99S WCI  34
ORD            CLOUDY    45  39  79 SE6       29.97R
YORK           CLOUDY    39  37  93 SE7       30.00S WCI  34
AURORA         CLOUDY    41  39  93 SW5       29.99S
LEXINGTON      CLOUDY    43  40  89 SE8       29.97R
HOLDREGE       CLEAR     40  38  94 SE9       29.98S WCI  33
HEBRON         MOCLDY    41  39  92 CALM      30.01R

...NEBRASKA PANHANDLE...

CITY           SKY/WX    TMP DP  RH WIND       PRES   REMARKS
CHADRON        MOCLDY    46  37  71 NE8       29.88R
ALLIANCE       CLOUDY    52  35  52 SE8       29.88R
SCOTTSBLUFF    LGT RAIN  51  41  68 N10       29.87R
SIDNEY         CLOUDY    51  35  54 SE14      29.87R

...WESTERN AND NORTH CENTRAL NEBRASKA...

CITY           SKY/WX    TMP DP  RH WIND       PRES   REMARKS
VALENTINE      MOCLDY    50  40  68 SE10      29.94R
AINSWORTH      CLEAR     46  41  84 SE5       29.94S
ONEILL         CLOUDY    48  41  76 S5        29.98R
BROKEN BOW     CLOUDY    44  40  85 SE7       29.96R
IMPERIAL       CLOUDY    50  41  71 SE18G28   29.90R
NORTH PLATTE   CLEAR     47  40  76 SE9       29.93R
MCCOOK         CLEAR     46  40  79 E9        29.95R

...EASTERN NEBRASKA...

CITY           SKY/WX    TMP DP  RH WIND       PRES   REMARKS
NORFOLK        CLEAR     39  36  89 SE6       30.00R WCI  35
SO SIOUX CITY  CLEAR     36  36 100 CALM      30.03R
TEKAMAH        CLEAR     37  35  92 CALM      30.03R
COLUMBUS       CLOUDY    41  36  81 SE3       30.02R
ALBION         CLOUDY    43  38  85 SE3       30.00R
OMAHA EPPLEY   CLOUDY    40  35  83 NE3       30.03R
OFFUTT AFB     CLOUDY    47  40  75 E5        30.02S
MILLARD        CLOUDY    50  42  76 CALM      30.02S
LINCOLN        CLOUDY    36  34  92 CALM      30.03S
NEBRASKA CITY  CLOUDY    46  41  83 CALM      30.02S
BEATRICE       CLOUDY    42  40  92 E3        30.02R
FALLS CITY     CLOUDY    47  42  83 N3        30.01S

...NORTHERN KANSAS...

CITY           SKY/WX    TMP DP  RH WIND       PRES   REMARKS
GOODLAND       PTCLDY    47  41  80 SE16      29.90S
HILL CITY      CLEAR     41  40  96 E7        29.98R
NORTON         CLEAR     43  36  75 E8        29.97R
PHILLIPSBURG   CLEAR     39  39 100 E6        29.99S WCI  35
HAYS             N/A     42  41  96 E7        29.98S
RUSSELL        PTCLDY    41  40  96 SE7       29.98R
CONCORDIA      CLOUDY    48  46  93 CALM      30.01R
SALINA         CLOUDY    53  47  79 CALM      30.00R
TOPEKA         CLOUDY    52  45  77 CALM      30.00S



USA.gov is the U.S. government's official web portal to all federal, state and local government web resources and services.